Regional Weather Roundup
Issued by NWS

Home | Current Version | Previous Version | Text Only | Print | Product List | Glossary Off
Versions: 1 2 3 4 5 6 7 8 9 10 11 12 13 14 15 16 17 18 19 20 21 22 23 24 25 26 27 28 29 30 31 32 33 34 35 36 37 38 39 40 41 42 43 44 45 46 47 48 49 50

000
ASUS43 KFSD 040110
RWRSD

WEATHER ROUNDUP FOR SOUTH DAKOTA
NATIONAL WEATHER SERVICE SIOUX FALLS SD
800 PM CDT FRI JUL 03 2015

NOTE: "FAIR" INDICATES FEW OR NO CLOUDS BELOW 12,000 FEET WITH NO
SIGNIFICANT WEATHER AND/OR OBSTRUCTIONS TO VISIBILITY.


SDZ001>005-009-010-012>017-040200-
NORTHWEST AND NORTH CENTRAL SOUTH DAKOTA

CITY           SKY/WX    TMP DP  RH WIND       PRES   REMARKS
BUFFALO          N/A     81  57  43 SE10      29.86F
FAITH            N/A     78  60  53 S8        29.93F
MOBRIDGE       MOSUNNY   81  67  62 SE5       29.90S HAZE
$$

SDZ012>016-024>037-041>051-057-063-072>074-040200-
SOUTHWEST AND SOUTH CENTRAL SOUTH DAKOTA

CITY           SKY/WX    TMP DP  RH WIND       PRES   REMARKS
RAPID CTY ARPT SUNNY     77  62  59 SE9       29.95F
PIERRE         SUNNY     76  67  73 SE7       29.91S HAZE
CUSTER         MOSUNNY   70  55  59 SE8       30.09F
ELLSWORTH AFB  SUNNY     78  62  58 SE7       29.95F
PHILIP         SUNNY     78  64  61 E6        29.92F HAZE
PINE RIDGE     SUNNY     78  61  55 SE8       29.97F
SPEARFISH      FAIR      75  64  69 SE9       29.97F
WINNER         FAIR      81  59  47 SE10      29.93F
$$

SDZ004>011-016>023-039-040-040200-
NORTHEAST SOUTH DAKOTA

CITY           SKY/WX    TMP DP  RH WIND       PRES   REMARKS
ABERDEEN       CLOUDY    79  67  66 CALM      29.91S HAZE
WATERTOWN      MOSUNNY   78  63  59 W3        29.93S HAZE
BROOKINGS      MOSUNNY   77  66  69 SW3       29.95S
SISSETON         N/A     80  65  59 CALM      29.90S
$$

SDZ017-020-022-023-036>040-048>070-040200-
SOUTHEAST SOUTH DAKOTA

CITY           SKY/WX    TMP DP  RH WIND       PRES   REMARKS
SIOUX FALLS    CLOUDY    76  64  66 CALM      29.95S
HURON          MOSUNNY   78  66  66 S7        29.91F
CHAMBERLAIN    SUNNY     77  66  68 SE5       29.93S
MITCHELL       SUNNY     77  67  71 SE7       29.94S
YANKTON        SUNNY     75  63  64 CALM      29.93S
$$

ABBREVIATIONS USED IN REMARKS
   TC - TEMPERATURE IN CELSIUS
  WCI - WIND CHILL INDEX
   HX - HEAT INDEX
  VSB - VISIBILITY




USA.gov is the U.S. government's official web portal to all federal, state and local government web resources and services.